When you browse on this site, cookies collect data to enhance your experience and personalize the content and advertising you see.
Visit our Privacy Policy to learn more. By continuing to use the site, you agree to this use of cookies and data.
  • In Schweiz
  • Länderverzeichnis
  • Für 7 Tage
  • Wassertemperatur
  • Wetterkarte
  • Widgets
  • user-avatar
    Anmelden

    Stündliche Wetter Vereskovo

    Heute, 29 Januar, Mittwoch

    Zeit Temperatur Niederschläge Wind Luftdruck Luftfeuchtigkeit
    00:00 0°C° 0.1 mm 4 m/S 735 mmHg 96%
    01:00 0°C° 0.1 mm 4 m/S 734 mmHg 95%
    02:00 0°C° 0.1 mm 4 m/S 734 mmHg 94%
    03:00 0°C° 0 mm 4 m/S 734 mmHg 95%
    04:00 0°C° 0 mm 4 m/S 733 mmHg 95%
    05:00 0°C° 0 mm 4 m/S 732 mmHg 95%
    06:00 +1°C° 0.2 mm 3 m/S 733 mmHg 95%
    07:00 +1°C° 0.2 mm 3 m/S 733 mmHg 96%
    08:00 +1°C° 0.2 mm 3 m/S 733 mmHg 96%
    09:00 +2°C° 1.2 mm 2 m/S 733 mmHg 97%
    10:00 +1°C° 1.2 mm 2 m/S 732 mmHg 97%
    11:00 +2°C° 1.2 mm 1 m/S 732 mmHg 98%
    12:00 +1°C° 0.6 mm 2 m/S 732 mmHg 97%
    13:00 +1°C° 0.6 mm 2 m/S 733 mmHg 96%
    14:00 +1°C° 0.6 mm 2 m/S 733 mmHg 95%
    15:00 +1°C° 0.2 mm 2 m/S 733 mmHg 93%
    16:00 0°C° 0.2 mm 3 m/S 732 mmHg 91%
    17:00 0°C° 0.2 mm 3 m/S 732 mmHg 89%
    18:00 0°C° 0 mm 3 m/S 732 mmHg 88%
    19:00 +1°C° 0 mm 2 m/S 733 mmHg 87%
    20:00 -1°C° 0 mm 2 m/S 733 mmHg 86%
    21:00 -1°C° 0 mm 2 m/S 733 mmHg 87%
    22:00 -1°C° 0 mm 2 m/S 733 mmHg 87%
    23:00 -1°C° 0 mm 2 m/S 733 mmHg 87%

    Morgen, 30 Januar, Donnerstag

    Zeit Temperatur Niederschläge Wind Luftdruck Luftfeuchtigkeit
    00:00 -1°C° 0 mm 3 m/S 733 mmHg 90%
    01:00 -1°C° 0 mm 3 m/S 733 mmHg 92%
    02:00 -1°C° 0 mm 3 m/S 734 mmHg 95%
    03:00 -2°C° 0.2 mm 4 m/S 734 mmHg 95%
    04:00 -1°C° 0.2 mm 4 m/S 734 mmHg 96%
    05:00 -1°C° 0.2 mm 5 m/S 734 mmHg 96%
    06:00 -1°C° 0.1 mm 5 m/S 734 mmHg 96%
    07:00 -1°C° 0.1 mm 5 m/S 734 mmHg 95%
    08:00 -1°C° 0.1 mm 5 m/S 735 mmHg 95%
    09:00 -1°C° 0.1 mm 5 m/S 735 mmHg 93%
    10:00 -1°C° 0.1 mm 5 m/S 735 mmHg 91%
    11:00 0°C° 0.1 mm 5 m/S 735 mmHg 90%
    12:00 0°C° 0 mm 5 m/S 735 mmHg 90%
    13:00 0°C° 0 mm 5 m/S 736 mmHg 91%
    14:00 0°C° 0 mm 5 m/S 736 mmHg 92%
    15:00 0°C° 0.2 mm 5 m/S 736 mmHg 93%
    16:00 0°C° 0.2 mm 5 m/S 736 mmHg 94%
    17:00 0°C° 0.2 mm 4 m/S 736 mmHg 95%
    18:00 -1°C° 0.2 mm 4 m/S 736 mmHg 93%
    19:00 -1°C° 0.2 mm 4 m/S 737 mmHg 92%
    20:00 -1°C° 0.2 mm 4 m/S 737 mmHg 90%
    21:00 -2°C° 0 mm 4 m/S 736 mmHg 91%
    22:00 -2°C° 0 mm 3 m/S 736 mmHg 91%
    23:00 -2°C° 0 mm 2 m/S 736 mmHg 92%

    übermorgen, 31 Januar, Freitag

    Zeit Temperatur Niederschläge Wind Luftdruck Luftfeuchtigkeit
    00:00 -2°C° 0 mm 2 m/S 735 mmHg 93%
    01:00 -2°C° 0 mm 3 m/S 735 mmHg 94%
    02:00 -1°C° 0 mm 3 m/S 734 mmHg 96%
    03:00 -1°C° 0.3 mm 3 m/S 734 mmHg 96%
    04:00 +1°C° 0.3 mm 2 m/S 733 mmHg 97%
    05:00 +2°C° 0.3 mm 2 m/S 733 mmHg 98%
    06:00 +2°C° 0.2 mm 2 m/S 733 mmHg 98%
    07:00 +2°C° 0.2 mm 2 m/S 733 mmHg 98%
    08:00 +2°C° 0.2 mm 2 m/S 733 mmHg 98%
    09:00 +2°C° 0 mm 2 m/S 733 mmHg 97%
    10:00 +2°C° 0 mm 2 m/S 733 mmHg 96%
    11:00 +2°C° 0 mm 2 m/S 733 mmHg 95%
    12:00 +2°C° 0 mm 2 m/S 733 mmHg 94%
    13:00 +2°C° 0 mm 2 m/S 734 mmHg 92%
    14:00 +2°C° 0 mm 2 m/S 734 mmHg 91%
    15:00 +2°C° 0 mm 2 m/S 735 mmHg 92%
    16:00 +2°C° 0 mm 2 m/S 736 mmHg 93%
    17:00 +2°C° 0 mm 2 m/S 736 mmHg 94%
    18:00 +1°C° 0 mm 2 m/S 737 mmHg 94%
    19:00 +1°C° 0 mm 2 m/S 738 mmHg 94%
    20:00 +2°C° 0 mm 1 m/S 738 mmHg 94%
    21:00 +2°C° 0 mm 1 m/S 739 mmHg 94%
    22:00 +2°C° 0 mm 1 m/S 739 mmHg 94%
    23:00 0°C° 0 mm 0 m/S 739 mmHg 94%

    1 Februar, Samstag

    Zeit Temperatur Niederschläge Wind Luftdruck Luftfeuchtigkeit
    00:00 +1°C° 0 mm 1 m/S 739 mmHg 94%
    01:00 +1°C° 0 mm 1 m/S 739 mmHg 93%
    02:00 +2°C° 0 mm 1 m/S 740 mmHg 93%
    03:00 +1°C° 0 mm 2 m/S 739 mmHg 94%
    04:00 -1°C° 0 mm 2 m/S 739 mmHg 95%
    05:00 -1°C° 0 mm 2 m/S 739 mmHg 96%
    06:00 +1°C° 0.5 mm 2 m/S 739 mmHg 96%
    07:00 0°C° 0.5 mm 3 m/S 739 mmHg 97%
    08:00 +1°C° 0.5 mm 3 m/S 739 mmHg 98%
    09:00 +1°C° 0 mm 3 m/S 738 mmHg 97%
    10:00 +2°C° 0 mm 3 m/S 738 mmHg 97%
    11:00 +1°C° 0 mm 4 m/S 738 mmHg 96%
    12:00 +3°C° 0.1 mm 4 m/S 738 mmHg 96%
    13:00 +3°C° 0.1 mm 4 m/S 738 mmHg 96%
    14:00 +3°C° 0.1 mm 4 m/S 737 mmHg 96%
    15:00 +3°C° 0.2 mm 4 m/S 737 mmHg 96%
    16:00 +3°C° 0.2 mm 4 m/S 737 mmHg 97%
    17:00 +3°C° 0.2 mm 4 m/S 736 mmHg 97%
    18:00 +4°C° 0.1 mm 4 m/S 736 mmHg 97%
    19:00 +4°C° 0.1 mm 4 m/S 736 mmHg 97%
    20:00 +4°C° 0.1 mm 3 m/S 736 mmHg 97%
    21:00 +4°C° 0.4 mm 4 m/S 735 mmHg 97%
    22:00 +4°C° 0.4 mm 4 m/S 735 mmHg 97%
    23:00 +5°C° 0.4 mm 4 m/S 734 mmHg 97%

    2 Februar, Sonntag

    Zeit Temperatur Niederschläge Wind Luftdruck Luftfeuchtigkeit
    00:00 +5°C° 0.7 mm 4 m/S 734 mmHg 97%
    01:00 +5°C° 0.7 mm 4 m/S 733 mmHg 97%
    02:00 +5°C° 0.7 mm 4 m/S 733 mmHg 97%
    03:00 +5°C° 0.4 mm 4 m/S 732 mmHg 97%
    04:00 +5°C° 0.4 mm 5 m/S 731 mmHg 96%
    05:00 +6°C° 0.4 mm 5 m/S 731 mmHg 96%
    06:00 +6°C° 0.6 mm 5 m/S 730 mmHg 96%
    07:00 +6°C° 0.6 mm 5 m/S 730 mmHg 96%
    08:00 +6°C° 0.6 mm 5 m/S 730 mmHg 95%
    09:00 +5°C° 0.6 mm 6 m/S 730 mmHg 92%
    10:00 +5°C° 0.6 mm 7 m/S 731 mmHg 89%
    11:00 +5°C° 0.6 mm 7 m/S 731 mmHg 85%
    12:00 +5°C° 0.1 mm 8 m/S 732 mmHg 83%
    13:00 +4°C° 0.1 mm 8 m/S 733 mmHg 81%
    14:00 +4°C° 0.1 mm 8 m/S 734 mmHg 79%
    15:00 +4°C° 0 mm 7 m/S 734 mmHg 78%
    16:00 +3°C° 0 mm 6 m/S 735 mmHg 77%
    17:00 +3°C° 0 mm 5 m/S 735 mmHg 77%
    18:00 +3°C° 0.1 mm 5 m/S 736 mmHg 81%
    19:00 +3°C° 0.1 mm 5 m/S 736 mmHg 86%
    20:00 +4°C° 0.1 mm 4 m/S 736 mmHg 90%
    21:00 +3°C° 0.3 mm 5 m/S 736 mmHg 90%
    22:00 +3°C° 0.3 mm 5 m/S 736 mmHg 90%
    23:00 +3°C° 0.3 mm 6 m/S 736 mmHg 91%

    3 Februar, Montag

    Zeit Temperatur Niederschläge Wind Luftdruck Luftfeuchtigkeit
    00:00 +3°C° 0.2 mm 6 m/S 737 mmHg 87%
    01:00 +2°C° 0.2 mm 7 m/S 737 mmHg 84%
    02:00 +2°C° 0.2 mm 7 m/S 737 mmHg 81%
    03:00 +2°C° 0 mm 7 m/S 737 mmHg 80%
    04:00 +2°C° 0 mm 6 m/S 738 mmHg 80%
    05:00 +1°C° 0 mm 6 m/S 738 mmHg 80%
    06:00 +1°C° 0 mm 5 m/S 738 mmHg 83%
    07:00 +1°C° 0 mm 5 m/S 738 mmHg 87%
    08:00 0°C° 0 mm 5 m/S 738 mmHg 91%
    09:00 0°C° 0.2 mm 5 m/S 738 mmHg 92%
    10:00 0°C° 0.2 mm 5 m/S 739 mmHg 94%
    11:00 +1°C° 0.2 mm 4 m/S 739 mmHg 95%
    12:00 +1°C° 0.1 mm 4 m/S 739 mmHg 93%
    13:00 +1°C° 0.1 mm 4 m/S 739 mmHg 91%
    14:00 +1°C° 0.1 mm 4 m/S 739 mmHg 89%
    15:00 +1°C° 0.1 mm 4 m/S 739 mmHg 90%
    16:00 +1°C° 0.1 mm 4 m/S 740 mmHg 91%
    17:00 +1°C° 0.1 mm 4 m/S 740 mmHg 91%
    18:00 +1°C° 0.1 mm 4 m/S 740 mmHg 91%
    19:00 +2°C° 0.1 mm 3 m/S 740 mmHg 91%
    20:00 +2°C° 0.1 mm 3 m/S 741 mmHg 91%
    21:00 +1°C° 0 mm 3 m/S 741 mmHg 92%
    22:00 +1°C° 0 mm 3 m/S 741 mmHg 93%
    23:00 +2°C° 0 mm 2 m/S 742 mmHg 94%
    Mehr zeigen